METEOR 1-17 DEB, 57543

Orbit data source: Space-Track

METEOR 1-17 DEB, 57543 is space debris in LEO originally from a Commonwealth of Independent States-origin launch on Wed, 24 Apr 1974 UTC launched from the Plesetsk Missile And Space Complex (PKMTR). Debris objects in space refer to the collection of defunct objects orbiting the Earth. Examples of debris include non-operational satellites, rocket bodies, and fragments generated from explosions, collisions, or faulty payload assembly.

Loading next visibility...
Identifier
57543, 1974-025J
Orbit
LEO
Country
Flag of CISCIS
Related business
Manufacturer
VNIIEM
Mission
Spacecraft
Bus & Motor
Unknown
Mass
Unknown
Launch date (UTC)
1974-04-24 (52 years ago)
Launch vehicle
Unknown
Launch site
Plesetsk Missile And Space Complex (PKMTR)
Object type
Payload
Rocket body
Debris
Shape & HBR
Unknown shape, 0.1 m
Radar Cross Section
Small (<0.1 m²)

Expand to show TLE details & history
Last TLE update: 5 days ago

TLE from 5 days ago
0 METEOR 1-17 DEB
1 57543U 74025J   26168.64576878  .00003212  00000-0  14562-2 0  9994
2 57543  81.1996 284.9410 0006633 331.7270  28.3546 14.21721889157632
Epoch: 2026-06-17T15:29Z
TLE epoch observation values (Epoch: 2026-06-17T15:29:54.422Z)
Latitude
-0.00005°
Longitude
146.56376°
Altitude
818.248 km
Speed
7.446 km/s
True Right ascension
18h 59m 45s
True Declination
0° 00' 00"
Sunlit
Object was in full shadow at epoch
Visualization orbit readout
Latitude
Unknown
Longitude
Unknown
Altitude
Unknown
Speed
Unknown
Apparent Right ascension
Unknown
Apparent Declination
Unknown
Sunlit
N/A
Visualization observer readout
Local Sidereal Time
21:40:42
Azimuth
Unknown
Elevation
Unknown
Doppler factor
Unknown
Orbital elements
Apogee altitude
821.468 km
Perigee altitude
811.924 km
Semi-major axis
7,194.833 km
Eccentricity
0.00066
Inclination
81.1996°
RAAN
284.941°
Arg. of periapsis
331.727°
True anomaly
28.39072°
Mean anomaly
28.3546°
Eccentric anomaly
28.37266°
Mean motion
3.55641 °/min
Orbital period
101.23 mins
BSTAR
0.0014562
Loading maneuver chart data...
Computing Atmospheric mass density...
Loading historical data...
Loading historical data...
Loading historical data...
Loading historical data...
Loading historical data...
Loading historical data...
Loading historical data...

Documentation

Showing up to 5 results
|